Regional Weather Roundup
Issued by NWS Sterling, VA

Home | Current Version | Previous Version | Text Only | Print | Product List | Glossary Off
Versions: 1 2 3 4 5 6 7 8 9 10 11 12 13 14 15 16 17 18 19 20 21 22 23 24 25 26 27 28 29 30 31 32 33 34 35 36 37 38 39 40 41 42 43 44 45 46 47 48 49 50

000
ASUS41 KLWX 291010
RWRLWX

REGIONAL WEATHER ROUNDUP
NATIONAL WEATHER SERVICE BALTIMORE MD/WASHINGTON DC
600 AM EDT FRI AUG 29 2014

Note: "FAIR" indicates few or no clouds below 12,000 feet
with no significant weather and/or obstructions to visibility.
 TC=TEMPERATURE CELSIUS

 * =Non NWS site. Station does not report precipitation (e.g. rain,
    snow, etc.), thunder, or fog.

DCZ001-MDZ009-015-VAZ040>042-051-053>054-291100-
WASHINGTON METRO
  /KDAA//-FT BELVOIR

CITY           SKY/WX    TMP DP  RH WIND       PRES   REMARKS
WASHINGTON NAT PTCLDY    65  50  58 NE6       30.16R
DULLES         PTCLDY    58  53  84 N3        30.16S
ANDREWS AFB    CLEAR     56  50  81 N3        30.15R
QUANTICO       CLEAR     62  56  80 NW8       30.16R
COLLEGE PARK*  CLEAR     55  55 100 CALM      30.15S
LEESBURG*      CLEAR     55  55 100 CALM      30.18R
MANASSAS*      CLEAR     55  55 100 N3        30.16R
GAITHERSBURG*  CLEAR     54  48  82 CALM      30.20R

$$

MDZ006>007-011-014-291100-
BALTIMORE METRO

CITY           SKY/WX    TMP DP  RH WIND       PRES   REMARKS
BWI AIRPORT    PTCLDY    59  50  72 N6        30.15R
MD SCIENCE CTR   N/A     64  50  60 MISG      30.16R
MARTIN STATE   PTCLDY    57  52  82 NW6       30.17R
ANNAPOLIS      CLEAR     66  56  70 N6        30.14R
FORT MEADE*    CLEAR     52  50  93 CALM      30.18R

$$

MDZ012-015-019>023-291100-
MARYLAND EASTERN SHORE

CITY           SKY/WX    TMP DP  RH WIND       PRES   REMARKS
OCEAN CITY     CLEAR     57  54  89 N6        30.12R
SALISBURY      CLEAR     59  53  80 CALM      30.12R
BAY BRIDGE AP*   N/A     63  50  63 CALM      30.15R
CAMBRIDGE*     CLEAR     59  54  82 N3        30.13R
EASTON*        CLEAR     56  54  91 CALM      30.18R

$$

MDZ017>025-291100-
SOUTHERN MARYLAND

CITY           SKY/WX    TMP DP  RH WIND       PRES   REMARKS
PATUXENT RIVER PTCLDY    64  53  67 NE7       30.13R
ST INIGOES     CLEAR     65  52  62 NE5       30.12R
LEONARDTOWN*   CLEAR     63  52  67 CALM      30.15R

$$

MDZ003>005-291100-
NORTH CENTRAL MARYLAND

CITY           SKY/WX    TMP DP  RH WIND       PRES   REMARKS
FREDERICK*     CLEAR    N/A N/A N/A CALM      30.20R
HAGERSTOWN APT CLEAR     56  50  80 N6        30.17R
WESTMINSTER*   PTCLDY    55  52  88 CALM      30.17R

$$

MDZ501>502-291100-
WESTERN MARYLAND

CITY           SKY/WX    TMP DP  RH WIND       PRES   REMARKS
OAKLAND*       CLEAR     50  50 100 SE7       30.21R
CUMBERLAND*    CLEAR     54  50  87 N5        30.23R

$$

VAZ025>031-291100-
SHENANDOAH VALLEY

CITY           SKY/WX    TMP DP  RH WIND       PRES   REMARKS
WINCHESTER*    CLEAR     52  50  93 CALM      30.18R
STAUNTON*      CLOUDY    59  55  88 CALM      30.19R

$$

WVZ021-048>050-054>055-291100-
EASTERN WEST VIRGINIA PANHANDLE

CITY           SKY/WX    TMP DP  RH WIND       PRES   REMARKS
MARTINSBURG    CLEAR     53  48  83 CALM      30.18R
PETERSBURG*    NOT AVBL

$$

VAZ036>039-050-291100-
CENTRAL FOOTHILLS

CITY           SKY/WX    TMP DP  RH WIND       PRES   REMARKS
CHARLOTTESVILL PTCLDY    59  56  89 N3        30.16R
ORANGE*        CLEAR     59  54  82 NW5       30.16S

$$

VAZ055>057-291100-
NORTH AND CENTRAL PIEDMONT

CITY           SKY/WX    TMP DP  RH WIND       PRES   REMARKS
FREDERICKSBRG* CLEAR     62  57  83 CALM      30.14R
STAFFORD*      CLEAR     56  56 100 CALM      30.19R

$$

NCZ024-NYZ072-PAZ021-071-VAZ022-071-291100-
OTHER REGIONAL OBSERVATIONS

CITY           SKY/WX    TMP DP  RH WIND       PRES   REMARKS
NEW YORK CITY  CLEAR     62  49  62 CALM      30.15R
PHILADELPHIA   MOCLDY    62  49  62 N8        30.14R
PITTSBURGH     PTCLDY    51  49  92 CALM      30.15S
ROANOKE        PTCLDY    67  58  72 CALM      30.17R
RICHMOND       MOCLDY    66  59  78 N5        30.12R
RALEIGH        CLOUDY    73  69  87 NE7       30.06R

$$

ANZ530>537-291100-
MARINE OBSERVATIONS

STATION/POSITION TIME  TEMP    WIND        PRES
                       AIR SEA DIR/SP/G
                 (UTC) (F)     (DEG/KT/KT) (MB)
THOMAS PT LIGHT  1000   68 77   40/ 13/ 14 1021.5R
BALT KEY BRIDGE  1000   71     340/  6/  8 1020.8R
COVE POINT       1000   67      50/ 12/ 14 1020.2R
LEWISETTA        1000   70 78   50/ 10/ 17 1019.5R
SOLOMONS ISLAND  1000      79                N/A
PINEY POINT      1000           60/  9/ 10   N/A

$$




USA.gov is the U.S. government's official web portal to all federal, state and local government web resources and services.